Powrót do katalogu

AETHER-9

AktywnyŁącznośćSSO
NORAD 67380·PAYLOAD·🇨🇦 Canada

Wystrzelony Jan 11, 2026 z Vandenberg Space Force Base

Loading…

Następne Przeloty (najbliższe 24 godziny)

TLE

ŚwieżeSource: Space-Track

Epoka: Sep 14, 2026, 09:48 UTC

1 67380U 26004T   26257.40897330  .00000441  00000-0  56716-4 0  9990
2 67380  97.8072 254.2809 0001229 163.4517 196.6739 14.85840213 36534

Śledź AETHER-9 w czasie rzeczywistym z AllMySat

Download on the App Store